Location: Buena Vista Beach
(41.8098°N, 81.1279°W)
Time: 18:22:20
(UTC+00:00)

Cosmos 1656 - Pass Details

Date: 29 October 2020
Orbit: 796 x 851 km, 71.1° (Epoch: 23 November)

Event Time Altitude Azimuth Distance (km) Brightness Sun altitude
Rises 23:17:48 0° 204° (SSW) 3,330 7.3 -10.9°
Reaches altitude 10° 23:20:11 10° 205° (SSW) 2,410 6.6 -11.4°
Maximum altitude 23:25:44 82° 294° (WNW) 843 3.8 -12.4°
Drops below altitude 10° 23:31:24 10° 22° (NNE) 2,462 5.8 -13.5°
Sets 23:33:52 0° 24° (NNE) 3,408 6.6 -13.9°
